Location: Holcomb Observatory
(44.4922°N, 73.1654°W)
Time: 23:35:12
(UTC-04:00)

Daily predictions for brighter satellites

Satellite Brightness Start Highest point End
(mag) Time Altitude Azimuth Time Altitude Azimuth Time Altitude Azimuth
Cosmos 2058 4.2 21:14:05 10° SE 21:17:21 23° E 21:20:39 10° NE
AVUM R/B 2.5 21:15:59 10° SSW 21:18:17 58° ESE 21:20:48 10° NE
Cosmos 2360 Rocket 2.3 21:13:31 10° NNW 21:19:12 75° ENE 21:24:52 10° SSE
SL-16 R/B 3.3 21:14:52 10° NW 21:20:14 44° WSW 21:25:33 10° S
Envisat 3.0 21:18:13 10° SSE 21:23:18 86° ENE 21:28:25 10° NNW
PSLV R/B 3.3 21:22:46 10° SSE 21:25:47 56° ENE 21:28:49 10° N
Cosmos 304 Rocket 3.8 21:21:26 10° NNW 21:26:17 75° ENE 21:31:05 10° SSE
ERS-1 Rocket 3.7 21:22:30 10° S 21:27:24 53° W 21:32:20 10° NNW
Cosmos 1908 3.4 21:26:01 10° N 21:29:55 80° W 21:33:50 10° S
Cosmos 1437 3.1 21:26:50 10° S 21:30:00 46° E 21:33:11 10° NNE
MetOp-B 4.3 21:25:21 10° SSE 21:30:38 65° ENE 21:35:57 10° N
Cosmos 2112 Rocket 4.1 21:27:17 10° NNW 21:32:32 70° ENE 21:37:47 10° SSE
Meteor 1-4 Rocket 4.5 21:30:04 10° NNE 21:32:43 18° ENE 21:35:20 10° ESE
Cosmos 1707 Rocket 4.3 21:30:22 10° N 21:34:25 37° ENE 21:38:19 11° SE
H-2A R/B 2.8 21:30:12 10° S 21:34:39 56° W 21:39:07 10° NNW
Cosmos 1666 Rocket 4.5 21:36:18 10° SSE 21:40:09 31° E 21:44:03 10° NNE
Cosmos 1777 Rocket 4.5 21:35:37 10° SSW 21:40:51 68° WNW 21:46:07 10° NNE
DELTA 2 R/B (1) 4.3 21:37:07 10° W 21:42:14 39° SSW 21:46:52 12° SE
NOSS 3-1 (C) 3.8 21:37:49 10° S 21:43:15 40° ESE 21:49:12 10° NE
Cosmos 1674 3.0 21:40:14 10° SSW 21:44:03 70° W 21:47:54 10° N
Nadezhda 2 Rocket 4.5 21:38:12 10° S 21:44:16 66° E 21:50:19 10° NNE
Cosmos 2227 Rocket 3.8 21:45:19 11° SE 21:47:53 15° E 21:51:00 10° ENE
Cosmos 1939 Rocket 4.3 21:48:32 10° SSW 21:52:09 34° W 21:55:44 10° NNW
Cosmos 1300 2.9 21:50:00 10° N 21:53:49 57° E 21:56:54 15° SSE
Cosmos 405 4.3 21:51:55 10° NNW 21:55:20 39° W 21:58:43 10° SSW
Cosmos 2333 Rocket 3.4 21:51:21 10° N 21:56:29 32° NE 22:01:13 12° ESE
SL-16 R/B 4.3 21:55:05 10° N 21:58:34 16° NE 22:02:02 10° E
H-2A R/B 2.9 21:58:30 14° SE 22:02:36 39° ENE 22:07:39 10° N
Terra 2.8 22:00:09 15° SE 22:03:31 33° ENE 22:07:46 10° N
YAOGAN 6 2.8 22:00:51 12° S 22:04:12 69° W 22:07:48 10° NNW
CZ-2C R/B 4.3 22:02:26 10° SW 22:05:11 19° W 22:08:04 10° NW
COSMOS 2428 2.7 22:02:45 10° NNW 22:08:28 90° NE 22:13:00 17° SSE
Cosmos 1680 Rocket 4.2 22:04:18 10° NNW 22:09:20 49° WSW 22:14:22 10° S
CZ-4B R/B 3.6 22:05:59 10° NNE 22:11:18 86° ESE 22:16:30 10° SSW
SPOT 1/Viking Rocket 3.7 22:10:08 13° S 22:14:47 74° WSW 22:19:58 10° NNW
Delta 2 Rocket 4.4 22:12:20 10° SW 22:14:51 19° S 22:15:00 19° S
Cosmos 2297 Rocket 3.7 22:13:15 16° ESE 22:15:01 18° E 22:18:40 10° ENE
Cosmos 1455 3.6 22:13:15 10° NNE 22:16:26 25° ENE 22:18:08 18° ESE
CZ-4 R/B 3.8 22:15:34 10° NNE 22:20:33 77° ESE 22:25:20 10° S
Cosmos 2219 Rocket 2.4 22:15:23 10° NNW 22:20:55 59° ENE 22:24:46 20° SE
Cosmos 2242 Rocket 3.6 22:16:44 10° N 22:21:12 69° E 22:24:09 21° SSE
ARGOS 3.3 22:18:17 15° S 22:22:52 76° WSW 22:28:17 10° NNW
Cosmos 1898 Rocket 3.5 22:19:28 10° S 22:24:35 66° ESE 22:29:46 10° NNE
FALCON 9 R/B 4.3 21:59:02 10° WSW 22:27:00 53° S 22:33:41 14° ESE
CZ-4C R/B 2.9 22:26:40 26° SSE 22:28:32 82° ENE 22:32:01 10° NNW
Cosmos 2150 Rocket 4.0 22:23:31 10° SSW 22:28:56 75° ESE 22:34:24 10° NNE
Cosmos 858 Rocket 4.4 22:25:57 10° S 22:31:05 69° ESE 22:36:16 10° NNE
BREEZE-M TANK 4.5 22:05:04 10° SW 22:31:47 65° SSE 22:36:44 10° ENE
Cosmos 1862 Rocket 4.2 22:28:53 10° N 22:33:02 41° ENE 22:35:04 25° SE
SAR-Lupe-2 4.1 22:31:51 27° SE 22:33:23 46° ENE 22:36:50 10° N
USA 245 4.0 22:32:07 16° SW 22:33:29 24° W 22:35:31 10° NW
DELTA 2 DEB (DPAF) 4.2 22:31:49 22° S 22:34:45 84° WSW 22:39:16 10° NNW
SeaSat 1 4.1 22:32:39 11° E 22:36:20 24° NE 22:40:15 10° N
CARTOSAT-1 3.6 22:34:08 25° SSE 22:36:32 68° ENE 22:40:51 10° N
SL-08 RB Rocket 4.0 22:34:43 18° S 22:37:54 60° W 22:42:22 10° NNW
Cosmos 1980 4.0 22:32:27 10° NNW 22:38:03 59° ENE 22:41:31 23° SE
Sich 1 3.2 22:34:24 13° SSW 22:38:20 72° W 22:42:45 10° N
Cosmos 1633 Rocket 3.2 22:36:53 14° SSW 22:40:36 72° W 22:45:00 10° N
Cosmos 1726 2.9 22:37:00 10° NNW 22:40:38 47° W 22:43:05 19° SSW
Cosmos 2219 4.0 22:38:28 10° SW 22:44:06 55° WNW 22:49:46 10° NNE
Tiangong 1 2.8 22:41:27 10° SW 22:42:38 19° SSW 22:42:38 19° SSW
DMSP B5D2-2 4.1 22:39:30 10° NNE 22:44:41 59° E 22:47:49 23° S
Lacrosse 4 Rocket 3.4 22:41:53 10° N 22:45:25 23° NE 22:48:18 13° E
NOSS 3-1 (A) 3.4 22:40:33 10° SSW 22:46:28 83° SE 22:53:05 10° NE
Cosmos 1271 Rocket 3.0 22:45:56 10° NNW 22:49:43 60° W 22:51:39 27° SSW
Cosmos 2237 Rocket 2.3 22:45:16 10° NNW 22:50:58 68° ENE 22:54:11 27° SE
SL-14 R/B 4.4 22:48:33 10° SSW 22:52:14 41° WNW 22:56:04 10° N
Cosmos 1703 3.3 22:50:01 23° SSW 22:52:20 75° W 22:56:16 10° N
Cosmos 2082 3.9 22:52:45 24° S 22:56:04 53° ESE 23:01:38 10° NE
USA 32 4.5 22:52:46 10° NNW 22:57:57 58° W 23:01:35 19° SSW
Cosmos 2360 Rocket 4.4 22:59:05 10° WNW 23:02:30 17° W 23:05:55 10° SW
COSMOS 2455 3.5 22:56:51 10° NNW 23:02:41 47° NE 23:06:26 21° ESE
Iridium 2 4.2 23:01:05 25° SSW 23:03:08 57° W 23:06:57 10° N
Cosmos 1241 Rocket 4.4 22:59:19 16° SSW 23:04:11 62° ESE 23:10:22 10° NE
Meteor 1-4 Rocket 4.1 23:04:39 10° NNW 23:08:02 31° W 23:09:49 20° SW
ATLAS 2AS CENTAUR R/B 3.1 23:03:26 18° S 23:08:59 54° ESE 23:16:46 10° NE
ERBS 3.2 23:12:02 35° E 23:12:02 35° E 23:14:30 10° ENE
Nadezhda 1 Rocket 4.1 23:07:42 10° NNW 23:13:45 68° W 23:17:27 25° S
Cosmos 1933 3.6 23:15:49 10° N 23:19:49 55° E 23:20:45 43° SE
Cosmos 1626 2.4 23:20:38 36° SSW 23:21:57 64° W 23:25:42 10° N
IGS 5A 4.3 23:21:56 28° SSW 23:23:35 42° W 23:27:34 10° NNW
Cosmos 1937 Rocket 4.2 23:20:02 10° SW 23:25:07 52° WNW 23:30:13 10° NNE
COS B Rocket 3.7 23:21:35 10° NNE 23:25:13 47° E 23:25:48 43° ESE
ATLAS 3B R/B 2.8 23:19:04 10° NW 23:26:09 70° NE 23:30:02 27° SE
Cosmos 2227 Rocket 2.2 23:27:04 20° SSW 23:31:09 81° WNW 23:36:52 10° NNE
Okean 1-7 3.6 23:27:04 10° N 23:31:10 42° ENE 23:32:05 36° ESE
Cosmos 1703 Rocket 3.5 23:29:32 10° N 23:33:55 74° E 23:35:00 49° SSE
Cosmos 1709 Rocket 3.9 23:32:45 31° S 23:35:51 86° E 23:41:59 10° N
Cosmos 2221 Rocket 3.6 23:34:27 10° N 23:39:02 79° E 23:40:13 49° SSE
Cosmos 2333 Rocket 2.9 23:35:28 10° NW 23:40:53 44° WSW 23:43:13 30° SSW
Terra 3.2 23:39:02 20° SW 23:41:15 29° W 23:45:25 10° NW
H-2A R/B 3.5 23:39:08 18° SW 23:42:05 30° W 23:46:50 10° NNW
Cosmos 44 Rocket 4.3 23:42:25 31° ESE 23:42:32 31° ESE 23:47:06 10° NE
SL-16 R/B 2.2 23:37:55 10° NNW 23:43:38 80° ENE 23:45:52 39° SE
NOSS 2-3 (E) 4.5 23:43:23 37° SE 23:43:46 37° ESE 23:48:51 10° NE
Cosmos 1269 Rocket 4.0 23:40:59 10° NNW 23:46:19 81° WSW 23:48:05 43° S
GEOS 3 Rocket 3.8 23:46:32 32° ESE 23:48:58 68° NE 23:54:08 10° NNW
CZ-4C R/B 4.1 23:43:54 10° NNW 23:50:05 34° NE 23:56:51 10° E
Cosmos 1455 4.0 23:49:02 10° NW 23:52:04 23° W 23:53:10 20° WSW
Cosmos 1900 4.2 23:47:58 10° NW 23:52:58 78° WSW 23:54:15 50° SSE
